Radiation Dose at Monitoring Post of Fukushima Daini Nuclear Power Station
Date,Time,MP-1(microSv/h),MP-2(microSv/h),MP-3(microSv/h),MP-4(microSv/h),MP-5(microSv/h),MP-6(microSv/h),MP-7(microSv/h),Wind Direction,Wind Velocity(m/s),Rain
2012/12/14,00:00,1.1,0.7,1.1,1.0,1.0,0.5,0.4,west,7.3,No
2012/12/14,00:10,1.1,0.7,1.1,1.0,1.0,0.5,0.4,west,3.8,No
2012/12/14,00:20,1.1,0.7,1.1,1.0,1.0,0.5,0.4,west,3.6,No
2012/12/14,00:30,1.1,0.7,1.1,1.0,1.0,0.5,0.4,west,6.1,No
2012/12/14,00:40,1.1,0.7,1.1,1.0,1.0,0.5,0.4,west,9.0,No
2012/12/14,00:50,1.1,0.7,1.1,1.0,1.0,0.5,0.4,west,9.7,No
2012/12/14,01:00,1.1,0.7,1.1,1.0,1.0,0.5,0.4,west-northwest,8.0,No
2012/12/14,01:10,1.1,0.7,1.1,1.0,1.0,0.5,0.4,west-northwest,8.2,No
2012/12/14,01:20,1.1,0.7,1.1,1.0,1.0,0.5,0.4,west-northwest,9.0,No
2012/12/14,01:30,1.1,0.7,1.1,1.0,1.0,0.5,0.4,west-northwest,6.4,No
2012/12/14,01:40,1.1,0.7,1.1,1.0,1.0,0.5,0.4,west-northwest,8.3,No
2012/12/14,01:50,1.1,0.7,1.1,1.0,1.0,0.5,0.4,west-northwest,7.6,No
2012/12/14,02:00,1.1,0.7,1.1,1.0,1.0,0.5,0.4,west-northwest,7.1,No
2012/12/14,02:10,1.1,0.7,1.1,1.0,1.0,0.5,0.4,west-northwest,8.0,No
2012/12/14,02:20,1.1,0.7,1.1,1.0,1.0,0.5,0.4,west-northwest,8.7,No
2012/12/14,02:30,1.1,0.7,1.1,1.0,1.0,0.5,0.4,northwest,7.5,No
2012/12/14,02:40,1.1,0.7,1.1,1.0,1.0,0.5,0.4,northwest,3.6,No
2012/12/14,02:50,1.1,0.7,1.1,1.0,1.0,0.5,0.4,west-northwest,6.7,No
2012/12/14,03:00,1.1,0.7,1.1,1.0,1.0,0.5,0.4,west-northwest,4.8,No
2012/12/14,03:10,1.1,0.7,1.1,1.0,1.0,0.5,0.4,west-northwest,8.9,No
2012/12/14,03:20,1.1,0.7,1.1,1.0,1.0,0.5,0.4,west,7.9,No
2012/12/14,03:30,1.1,0.7,1.1,1.0,1.0,0.5,0.4,west-northwest,8.1,No
2012/12/14,03:40,1.1,0.7,1.1,1.0,1.0,0.5,0.4,west,11.2,No
2012/12/14,03:50,1.1,0.7,1.1,1.0,1.0,0.5,0.4,west-northwest,6.4,No
2012/12/14,04:00,1.1,0.7,1.1,1.0,1.0,0.5,0.4,west-northwest,6.6,No
2012/12/14,04:10,1.1,0.7,1.1,1.0,1.0,0.5,0.4,west-northwest,4.8,No
2012/12/14,04:20,1.1,0.7,1.1,1.0,1.0,0.5,0.4,west,3.9,No
2012/12/14,04:30,1.1,0.7,1.1,1.0,1.0,0.5,0.4,west-southwest,4.9,No
2012/12/14,04:40,1.1,0.7,1.1,1.0,1.0,0.5,0.4,west-southwest,4.5,No
2012/12/14,04:50,1.1,0.7,1.1,1.0,1.0,0.5,0.4,west,4.0,No
2012/12/14,05:00,1.1,0.7,1.1,1.0,1.0,0.5,0.4,west-northwest,5.6,No
2012/12/14,05:10,1.1,0.7,1.1,1.0,1.0,0.5,0.4,west,6.3,No
2012/12/14,05:20,1.1,0.7,1.1,1.0,1.0,0.5,0.4,west-northwest,4.4,No
2012/12/14,05:30,1.1,0.7,1.1,1.0,1.0,0.5,0.4,west-southwest,1.7,No
2012/12/14,05:40,1.1,0.7,1.1,1.0,1.0,0.5,0.4,south,2.9,No
2012/12/14,05:50,1.1,0.7,1.1,1.0,1.0,0.5,0.4,southwest,3.9,No
2012/12/14,06:00,1.1,0.7,1.1,1.0,1.0,0.5,0.4,south,1.5,No
2012/12/14,06:10,1.1,0.7,1.1,1.0,1.0,0.5,0.4,southwest,3.3,No
2012/12/14,06:20,1.1,0.7,1.1,1.0,1.0,0.5,0.4,south-southwest,3.7,No
2012/12/14,06:30,1.1,0.7,1.1,1.0,1.0,0.5,0.4,south-southwest,3.6,No
2012/12/14,06:40,1.1,0.7,1.1,1.0,1.0,0.5,0.4,south-southwest,2.5,No
2012/12/14,06:50,1.1,0.7,1.1,1.0,1.0,0.5,0.4,south-southwest,5.0,No
2012/12/14,07:00,1.1,0.7,1.1,1.0,1.0,0.5,0.4,south-southwest,5.6,No
2012/12/14,07:10,1.1,0.7,1.1,1.0,1.0,0.5,0.4,south-southwest,5.2,No
2012/12/14,07:20,1.1,0.7,1.1,1.0,1.0,0.5,0.4,south-southwest,6.6,No
2012/12/14,07:30,1.1,0.7,1.1,1.0,1.0,0.5,0.4,south-southwest,5.7,No
2012/12/14,07:40,1.1,0.7,1.1,1.0,1.0,0.5,0.4,southwest,4.7,No
2012/12/14,07:50,1.1,0.7,1.1,1.0,1.0,0.5,0.4,southwest,6.4,No
2012/12/14,08:00,1.1,0.7,1.1,1.0,1.0,0.5,0.4,south-southwest,7.0,No
2012/12/14,08:10,1.1,0.7,1.1,1.0,1.0,0.5,0.4,south-southwest,7.3,No
2012/12/14,08:20,1.1,0.7,1.1,1.0,1.0,0.5,0.4,southwest,5.3,No
2012/12/14,08:30,1.1,0.7,1.1,1.0,1.0,0.5,0.4,southwest,3.1,No
2012/12/14,08:40,1.1,0.7,1.1,1.0,1.0,0.5,0.4,west-southwest,2.5,No
2012/12/14,08:50,1.1,0.7,1.1,1.0,1.0,0.5,0.4,west,1.7,No
2012/12/14,09:00,1.1,0.7,1.1,1.0,1.0,0.5,0.4,southwest,2.0,No
2012/12/14,09:10,1.1,0.7,1.1,1.0,1.0,0.5,0.4,south-southwest,3.2,No
2012/12/14,09:20,1.1,0.7,1.1,1.0,1.0,0.5,0.4,south-southwest,6.2,No
2012/12/14,09:30,1.1,0.7,1.1,1.0,1.0,0.5,0.4,south-southwest,6.1,No
2012/12/14,09:40,1.1,0.7,1.1,1.0,1.0,0.5,0.4,south-southwest,7.9,No
2012/12/14,09:50,1.1,0.7,1.1,1.0,1.0,0.5,0.4,south,7.2,No
2012/12/14,10:00,1.1,0.7,1.1,1.0,1.0,0.5,0.4,south-southwest,6.6,No
2012/12/14,10:10,1.1,0.7,1.1,1.0,1.0,0.5,0.4,south-southwest,7.6,No
2012/12/14,10:20,1.1,0.7,1.1,1.0,1.0,0.5,0.4,south-southwest,6.7,No
2012/12/14,10:30,1.1,0.7,1.1,1.0,1.0,0.5,0.4,south-southwest,3.4,No
2012/12/14,10:40,1.1,0.7,1.1,1.0,1.0,0.5,0.4,south-southwest,6.9,No
2012/12/14,10:50,1.1,0.7,1.1,1.0,1.0,0.5,0.4,south-southwest,5.5,No
2012/12/14,11:00,1.1,0.7,1.1,1.0,1.0,0.5,0.4,south,5.6,No
2012/12/14,11:10,1.1,0.7,1.1,1.0,1.0,0.5,0.4,south,4.8,No
2012/12/14,11:20,1.1,0.7,1.1,1.0,1.0,0.5,0.4,south-southwest,4.7,No
2012/12/14,11:30,1.1,0.8,1.1,1.0,1.0,0.5,0.4,south-southwest,4.6,No
2012/12/14,11:40,1.1,0.7,1.1,1.0,1.0,0.5,0.4,southwest,3.0,No
2012/12/14,11:50,1.1,0.7,1.1,1.0,1.0,0.5,0.4,southwest,4.8,No
2012/12/14,12:00,1.1,0.7,1.1,1.0,1.0,0.5,0.4,south-southwest,7.2,No
2012/12/14,12:10,1.1,0.8,1.1,1.0,1.0,0.5,0.4,south-southwest,6.4,No
2012/12/14,12:20,1.1,0.7,1.1,1.0,1.0,0.5,0.4,southwest,5.0,No
2012/12/14,12:30,1.1,0.8,1.1,1.0,1.0,0.5,0.4,south-southwest,5.3,No
2012/12/14,12:40,1.1,0.7,1.1,1.0,1.0,0.5,0.4,south-southwest,3.9,No
2012/12/14,12:50,1.1,0.8,1.1,1.0,1.0,0.5,0.4,south-southwest,5.1,No
2012/12/14,13:00,1.1,0.8,1.1,1.0,1.0,0.5,0.4,south-southwest,5.5,No
2012/12/14,13:10,1.1,0.8,1.1,1.0,1.0,0.5,0.4,south-southwest,6.0,No
2012/12/14,13:20,1.1,0.8,1.1,1.0,1.0,0.5,0.4,south-southwest,5.9,No
2012/12/14,13:30,1.1,0.8,1.1,1.0,1.0,0.5,0.4,south-southwest,3.3,No
2012/12/14,13:40,1.1,0.8,1.1,1.0,1.0,0.5,0.4,west-southwest,3.8,No
2012/12/14,13:50,1.1,0.8,1.1,1.0,1.0,0.5,0.4,west-southwest,3.3,No
2012/12/14,14:00,1.1,0.8,1.1,1.0,1.0,0.5,0.4,west,1.8,No
2012/12/14,14:10,1.1,0.8,1.1,1.0,1.0,0.5,0.4,west-northwest,2.2,No
2012/12/14,14:20,1.1,0.8,1.1,1.0,1.0,0.5,0.4,west,2.1,No
2012/12/14,14:30,1.1,0.8,1.1,1.0,1.0,0.5,0.4,southwest,2.3,No
2012/12/14,14:40,1.1,0.8,1.1,1.0,1.0,0.5,0.4,west-southwest,0.9,No
2012/12/14,14:50,1.1,0.8,1.1,1.0,1.0,0.5,0.4,south,1.5,No
2012/12/14,15:00,1.1,0.7,1.1,1.0,1.0,0.5,0.4,west-southwest,1.9,No
2012/12/14,15:10,1.1,0.7,1.1,1.0,1.0,0.5,0.4,south-southwest,0.9,No
2012/12/14,15:20,1.1,0.7,1.1,1.0,1.0,0.5,0.4,southwest,1.9,No
2012/12/14,15:30,1.1,0.7,1.1,1.0,1.0,0.5,0.4,south-southwest,4.2,No
2012/12/14,15:40,1.1,0.7,1.1,1.0,1.0,0.5,0.4,south-southwest,4.7,No
2012/12/14,15:50,1.1,0.7,1.1,1.0,1.0,0.5,0.4,south-southwest,5.8,No
2012/12/14,16:00,1.1,0.7,1.1,1.0,1.0,0.5,0.4,south-southwest,6.9,No
2012/12/14,16:10,1.1,0.7,1.1,1.0,1.0,0.5,0.4,south-southwest,6.5,No
2012/12/14,16:20,1.1,0.8,1.1,1.0,1.0,0.5,0.4,southwest,5.0,No
2012/12/14,16:30,1.1,0.8,1.1,1.0,1.0,0.5,0.4,southwest,5.8,No
2012/12/14,16:40,1.1,0.7,1.1,1.0,1.0,0.5,0.4,southwest,4.1,No
2012/12/14,16:50,1.1,0.7,1.1,1.0,1.0,0.5,0.4,west-southwest,4.4,No
2012/12/14,17:00,1.1,0.7,1.1,1.0,1.0,0.5,0.4,west-southwest,3.7,No
2012/12/14,17:10,1.1,0.8,1.1,1.0,1.0,0.5,0.4,southwest,2.9,No
2012/12/14,17:20,1.1,0.7,1.1,1.0,1.0,0.5,0.4,southwest,5.0,No
2012/12/14,17:30,1.1,0.7,1.1,1.0,1.0,0.5,0.4,west-southwest,5.2,No
2012/12/14,17:40,1.1,0.7,1.1,1.0,1.0,0.5,0.4,southwest,3.0,No
2012/12/14,17:50,1.1,0.7,1.1,1.0,1.0,0.5,0.4,west-southwest,5.6,No
2012/12/14,18:00,1.1,0.8,1.1,1.0,1.0,0.5,0.4,west-southwest,7.0,No
2012/12/14,18:10,1.1,0.7,1.1,1.0,1.0,0.5,0.4,west-southwest,5.0,No
2012/12/14,18:20,1.1,0.7,1.1,1.0,1.0,0.5,0.4,west,6.2,No
2012/12/14,18:30,1.1,0.7,1.1,1.0,1.0,0.5,0.4,west,5.9,No
2012/12/14,18:40,1.1,0.7,1.1,1.0,1.0,0.5,0.4,west-southwest,6.3,No
2012/12/14,18:50,1.1,0.7,1.1,1.0,1.0,0.5,0.4,west-southwest,5.3,No
2012/12/14,19:00,1.1,0.7,1.1,1.0,1.0,0.5,0.4,west-southwest,4.9,No
2012/12/14,19:10,1.1,0.7,1.1,1.0,1.0,0.5,0.4,west-southwest,3.3,No
2012/12/14,19:20,1.1,0.7,1.1,1.0,1.0,0.5,0.4,southwest,2.6,No
2012/12/14,19:30,1.1,0.7,1.1,1.0,1.0,0.5,0.4,south-southwest,2.8,No
2012/12/14,19:40,1.1,0.7,1.1,1.0,1.0,0.5,0.4,south-southwest,0.9,No
2012/12/14,19:50,1.1,0.7,1.1,1.0,1.0,0.5,0.4,-,CALM,No
2012/12/14,20:00,1.1,0.7,1.1,1.0,1.0,0.5,0.4,south-southwest,1.4,No
2012/12/14,20:10,1.1,0.7,1.1,1.0,1.0,0.5,0.4,south-southwest,3.1,No
2012/12/14,20:20,1.1,0.7,1.1,1.0,1.0,0.5,0.4,southwest,3.6,No
2012/12/14,20:30,1.1,0.7,1.1,1.0,1.0,0.5,0.4,southwest,2.8,No
2012/12/14,20:40,1.1,0.7,1.1,1.0,1.0,0.5,0.4,southwest,3.5,No
2012/12/14,20:50,1.1,0.7,1.1,1.0,1.0,0.5,0.4,south-southwest,5.5,No
2012/12/14,21:00,1.1,0.7,1.1,1.0,1.0,0.5,0.4,south-southwest,6.4,No
2012/12/14,21:10,1.1,0.7,1.1,1.0,1.0,0.5,0.4,southwest,4.5,No
2012/12/14,21:20,1.1,0.7,1.1,1.0,1.0,0.5,0.4,south-southwest,4.0,No
2012/12/14,21:30,1.1,0.7,1.1,1.0,1.0,0.5,0.4,south-southwest,4.1,No
2012/12/14,21:40,1.1,0.8,1.1,1.0,1.0,0.5,0.4,southwest,5.0,No
2012/12/14,21:50,1.1,0.7,1.1,1.0,1.0,0.5,0.4,south-southwest,5.9,No
2012/12/14,22:00,1.1,0.7,1.1,1.0,1.0,0.5,0.4,southwest,5.2,No
2012/12/14,22:10,1.1,0.7,1.1,1.0,1.0,0.5,0.4,south-southwest,4.3,No
2012/12/14,22:20,1.1,0.7,1.1,1.0,1.0,0.5,0.4,southwest,4.2,No
2012/12/14,22:30,1.1,0.7,1.1,1.0,1.0,0.5,0.4,southwest,3.5,No
2012/12/14,22:40,1.1,0.7,1.1,1.0,1.0,0.5,0.4,southwest,4.1,No
2012/12/14,22:50,1.1,0.7,1.1,1.0,1.0,0.5,0.4,west-southwest,3.9,No
2012/12/14,23:00,1.1,0.8,1.1,1.0,1.0,0.5,0.4,west-southwest,4.2,No
2012/12/14,23:10,1.1,0.7,1.1,1.0,1.0,0.5,0.4,west-southwest,4.2,No
2012/12/14,23:20,1.1,0.7,1.1,1.0,1.0,0.5,0.4,west-southwest,4.6,No
2012/12/14,23:30,1.1,0.7,1.1,1.0,1.0,0.5,0.4,west-southwest,4.8,No
2012/12/14,23:40,1.1,0.7,1.1,1.0,1.0,0.5,0.4,west,2.8,No
2012/12/14,23:50,1.1,0.8,1.1,1.0,1.0,0.5,0.4,west,4.0,No
